Nakhon Si Thammarat Airport
VTSF : now visible

Airfield :











YOU CAN JOIN US ON...

 
LOGIN :

Register | Disclaimer

   EN    FR    IT 

 









Legend :    VFR   Marginal VFR   IFR   Intensive IFR   Very Intensive IFR
Visi :
Ceiling :
>= 8 km
>= 3000ft
5 to 8 km
1000 to 3000 ft
1500m to 5 km
500 to 1000 ft
800 to 1500m
200 to 500 ft
< 800m
< 200 ft
Symbols :   Thunderstorms  Fog  Heavy snow  Heavy precipitations  Wind > 20 kt






- Airport Elevation : 13 ft
- IATA code : NST


VTSF - Nakhon Si Thammarat

CURRENT METAR :
  • 281200Z VRB02KT 9999 FEW018 29/27 Q1008 NOSIG

EXPIRED METARs :
  • 281100Z VRB02KT 9999 FEW016CB 30/26 Q1008 RETS NOSIG
  • 281000Z 05005KT 350V080 9999 -TSRA FEW016CB SCT018 33/27 Q1007 NOSIG

TAF TAF VTSF
Valid from the 28 at 12:00 until the 29 at 12:00 UTC


281100Z 2812/2912 19005KT 9999 FEW020 BKN100
TEMPO 2812/2816 5000 TSRA FEW016CB SCT018 BKN100
TEMPO 2906/2912 VRB10G20KT 5000 TSRA FEW016CB SCT018 BKN100
VTBB FIR / Asia



MET'MAP, your aeronautical weather chart ! - Copyright ORBIFLY December 2007 - Disclaimer

ORBIFLY MET'MAP TEAM :

Programming & Development : Alexandra Zaïnal
Concept & original design : Baudouin d'Aumeries
Assistance for programming : Marc-Olivier Méhu
Technical & hardware support : Manuel Goepfert

Contact : metmap@orbifly.com




SOURCES & CREDITS :

   NOAA       Earth
Advisory